Wind_Speed
41 47 51 55 57 57 57 62 60 65 69 74 68 60 52 42 34 33 32 31 23 26 23 21 22 18 19 18 20 21 25 27 29 29 27 24 18 13 10 15 19 21 16 8
36 41 48 52 54 52 56 58 62 63 78 76 69 64 57 48 38 34 34 30 27 25 20 17 18 18 18 15 16 20 22 25 27 26 23 15 9 6 9 12 13 14 6 5
31 35 47 51 56 56 59 62 62 66 82 78 70 65 57 49 43 36 35 29 24 22 19 21 18 11 10 14 16 17 20 24 26 21 13 8 5 5 6 8 9 2 8 2
26 33 45 58 59 58 54 57 63 77 81 76 69 64 57 53 45 41 37 32 22 17 21 20 21 13 13 12 14 17 21 25 21 14 9 6 4 3 3 4 2 10 8 10
27 35 47 59 65 63 59 59 64 78 79 70 69 63 59 54 46 44 36 28 19 19 18 19 22 15 11 13 14 17 21 21 16 11 8 4 2 2 4 3 5 12 8 21
29 34 45 55 65 66 64 65 69 74 72 67 65 62 60 55 48 42 37 30 21 19 19 18 19 12 10 12 13 16 20 16 13 10 6 4 2 1 4 2 16 16 9 29
27 34 43 54 64 67 63 66 67 62 65 67 63 63 58 54 49 41 40 35 27 20 16 17 20 16 10 11 12 15 15 13 11 7 2 2 3 1 2 6 21 15 19 31
24 31 46 55 60 63 65 67 59 62 66 69 66 61 57 53 51 44 37 35 30 24 18 17 20 13 9 8 10 13 12 10 8 5 4 5 2 3 4 14 19 12 18 31
30 34 45 59 69 67 65 58 61 61 64 67 63 58 55 56 54 47 37 30 25 24 20 19 20 16 7 5 6 11 10 7 7 3 3 3 2 4 4 16 19 12 18 28
34 40 48 55 56 57 60 61 57 63 65 64 61 59 55 54 42 42 36 31 29 20 24 18 19 12 8 2 4 9 10 6 5 3 0 2 1 3 5 17 23 20 14 26
39 47 54 55 53 53 56 55 62 63 66 66 63 61 60 50 51 44 37 27 22 14 21 19 18 10 8 1 4 7 8 4 3 4 3 4 3 5 7 20 25 24 16 16
44 54 63 60 60 61 56 59 63 66 69 71 70 62 55 48 41 34 33 27 19 20 23 19 12 9 10 4 4 5 8 7 3 3 5 7 4 6 7 17 26 23 22 14
50 59 65 65 58 64 64 66 67 69 73 76 69 54 55 44 39 33 30 28 25 23 24 24 16 9 12 7 6 5 8 5 6 6 4 5 7 7 6 12 23 23 23 21
53 64 61 56 60 67 72 72 73 74 75 72 56 57 50 50 41 31 28 28 27 28 28 31 24 16 10 10 7 8 8 7 5 5 7 7 6 6 7 6 11 19 24 23
56 64 63 59 62 62 65 68 71 77 80 71 65 61 50 50 46 31 44 33 34 32 35 35 29 21 15 9 9 7 6 6 7 5 7 10 11 9 7 6 6 8 10 18
62 64 62 61 64 65 68 73 67 67 78 75 75 62 63 65 62 54 39 36 38 37 36 38 33 26 19 14 12 10 6 4 3 5 5 6 7 10 10 9 6 5 9 9
65 68 67 66 63 63 71 71 71 74 78 78 77 71 70 67 63 59 56 50 44 41 37 35 35 29 24 21 15 11 11 7 2 1 4 5 7 9 11 11 9 7 4 6
70 72 73 69 72 66 61 64 76 66 78 85 79 74 74 72 67 66 63 55 51 47 40 37 36 34 31 28 23 18 14 12 11 8 6 5 4 3 2 3 5 6 8 7
74 77 80 78 75 72 69 71 76 75 81 80 79 77 80 76 74 66 65 61 57 53 47 40 37 36 34 33 29 25 21 21 17 13 13 12 11 8 6 4 4 4 3 8
68 81 81 80 82 81 83 83 75 71 88 83 84 85 88 86 79 74 68 66 63 58 55 52 45 42 38 38 35 32 27 25 24 23 18 16 14 12 11 9 7 7 7 6
46 60 81 79 83 84 88 90 83 73 91 86 87 82 82 82 86 79 74 69 64 61 60 60 54 50 46 44 41 37 33 28 28 28 28 23 20 18 18 19 18 16 14 12
43 45 57 78 88 85 84 87 88 83 82 91 90 88 82 85 86 85 83 78 73 67 64 63 61 57 56 54 48 43 39 35 32 31 29 31 29 26 24 23 23 24 24 23
45 53 55 57 73 83 89 87 84 82 82 83 95 91 93 91 87 85 83 81 80 75 73 71 65 61 61 59 55 50 48 44 42 40 39 35 34 30 30 30 30 30 30 29
34 45 53 59 58 65 80 84 86 82 83 80 85 90 99 96 95 90 89 83 85 84 80 78 73 69 64 64 62 60 56 53 52 51 48 46 44 42 40 40 40 36 36 35
22 32 41 50 54 55 58 65 82 88 88 84 82 83 90 95 91 92 94 93 89 89 86 82 80 75 74 72 68 66 63 62 60 57 55 54 53 50 48 48 46 42 42 41
16 16 24 36 44 54 60 62 66 71 83 92 91 90 84 83 82 85 88 95 95 91 89 86 84 83 81 79 79 76 72 69 68 67 65 62 60 59 59 59 59 57 55 55
21 21 21 21 27 40 52 61 68 71 73 77 82 89 89 87 88 86 91 97 101 98 97 94 91 89 87 87 85 84 83 80 78 76 74 74 74 73 71 69 68 68 67 67
Wind_Direction
223 212 209 215 217 218 218 219 217 213 204 205 210 217 217 216 206 207 216 224 222 239 248 255 237 245 252 265 294 301 301 304 305 306 303 295 290 276 259 274 284 305 296 224
215 209 202 203 209 211 216 212 208 200 200 204 208 214 214 212 203 209 215 224 224 243 243 225 233 253 259 274 293 298 304 304 307 305 298 293 290 268 271 293 307 306 194 191
212 200 197 193 199 203 206 205 198 190 201 202 210 211 211 208 204 203 211 219 220 229 224 221 240 259 263 291 298 304 312 311 311 301 303 304 307 304 305 311 312 198 157 170
199 193 190 190 187 194 198 196 189 187 199 200 206 206 206 206 204 199 209 213 215 214 224 244 245 263 282 292 291 312 318 316 313 302 313 312 329 329 305 301 298 162 186 101
189 190 188 185 180 186 190 187 185 191 195 198 199 199 201 203 199 197 203 210 208 222 220 240 246 266 281 290 291 320 321 321 308 309 321 291 269 163 291 273 183 168 185 132
180 184 184 182 178 178 185 181 181 193 192 195 195 194 198 198 197 195 197 200 198 215 219 227 241 267 290 291 303 323 324 319 314 318 320 248 188 44 292 254 167 177 118 141
174 177 177 174 178 176 180 176 181 185 189 191 189 193 194 195 192 191 196 196 202 207 222 212 235 262 296 293 313 326 325 334 331 349 348 205 111 320 317 160 169 186 116 135
158 172 168 171 173 172 178 176 180 180 183 184 186 187 188 187 187 183 191 198 199 216 209 214 237 258 280 292 327 333 335 334 351 35 76 100 96 118 53 166 173 169 137 139
150 157 166 171 172 174 174 174 179 174 176 180 183 182 181 180 182 182 192 185 200 207 205 214 232 242 251 284 338 359 349 342 5 55 123 94 112 110 82 169 167 157 135 149
147 155 162 168 171 174 169 176 167 168 170 173 176 172 173 173 175 182 187 187 189 193 196 211 229 228 224 263 357 10 2 2 9 48 103 105 92 109 145 171 163 167 167 150
149 154 155 164 164 168 170 162 161 165 166 170 168 166 170 170 172 172 169 180 188 198 202 206 225 207 209 166 49 24 18 2 25 65 124 142 128 95 138 172 169 165 179 163
154 154 153 159 162 168 163 158 161 164 165 163 158 158 158 167 165 173 174 190 196 201 204 207 203 202 197 157 102 48 33 23 31 76 107 140 141 110 133 165 175 172 178 179
155 156 158 163 164 157 157 160 161 163 165 159 154 157 158 163 173 175 189 193 201 204 207 214 190 204 195 173 146 116 66 32 27 55 97 117 147 146 123 166 181 186 183 189
155 153 157 159 161 162 160 159 161 164 160 157 162 159 164 167 155 165 190 199 196 205 209 216 201 196 205 189 174 160 113 87 69 61 72 97 106 125 140 156 169 194 202 205
155 155 158 160 161 160 159 159 162 166 162 158 160 159 155 161 170 157 185 199 204 209 216 217 200 185 194 203 199 188 168 137 101 90 92 93 97 106 120 150 172 167 195 209
158 159 160 162 162 160 163 159 161 178 168 164 163 167 171 172 177 179 194 201 206 205 211 216 202 190 196 197 208 209 192 164 177 131 127 122 103 99 98 101 120 169 188 197
161 163 165 170 165 170 167 173 173 174 173 174 176 175 174 181 184 184 192 200 197 196 206 211 210 204 205 200 208 214 211 192 187 239 211 144 128 116 106 98 112 126 138 194
166 167 169 170 172 172 178 176 179 184 185 180 180 180 184 183 190 188 192 199 197 192 197 202 208 217 213 213 199 217 232 211 206 209 217 203 189 168 153 121 118 127 154 159
175 174 173 172 174 175 176 179 184 191 184 182 183 185 191 190 192 192 195 197 198 196 198 197 201 211 220 217 221 211 221 238 233 221 224 228 225 217 218 235 270 273 184 182
185 179 181 178 175 179 179 184 188 195 190 189 191 192 194 196 198 198 198 199 201 203 204 202 204 203 211 220 223 222 223 234 242 237 235 237 243 254 255 251 252 253 263 266
203 197 192 188 187 187 186 189 192 196 199 196 200 198 202 200 202 202 202 201 204 206 210 210 209 207 211 215 217 218 222 226 235 237 238 240 240 243 250 257 253 248 252 258
191 196 196 200 201 197 198 198 198 201 206 204 205 202 204 203 207 210 211 211 213 214 215 216 217 213 213 213 214 215 219 219 225 234 238 237 242 250 255 258 258 258 256 255
215 199 194 199 203 207 209 209 209 208 210 209 212 210 208 209 212 214 216 216 215 219 219 221 220 219 220 215 214 217 218 220 222 227 232 234 237 241 249 256 256 257 258 263
220 212 208 197 198 207 210 212 211 212 215 214 214 214 212 213 216 215 217 217 220 221 219 223 223 222 223 221 219 218 221 225 222 226 229 229 227 229 232 240 245 246 250 252
216 212 210 215 212 208 211 214 212 212 214 216 217 217 216 215 219 220 222 224 226 223 220 223 224 223 224 226 227 225 226 229 229 230 230 232 234 237 238 240 241 243 245 247
210 206 211 219 220 221 221 217 216 219 218 219 219 220 219 216 218 222 224 225 227 226 224 225 225 227 227 227 228 230 230 231 233 236 238 236 237 240 245 247 249 248 249 252
219 208 208 214 225 231 231 230 226 221 222 221 221 222 223 222 223 222 220 223 226 228 228 226 226 228 230 229 230 230 231 232 234 237 241 243 245 248 249 248 249 251 252 253
Height
10300 10314 10330 10351 10375 10399 10424 10444 10471 10493 10502 10509 10521 10549 10564 10576 10586 10594 10600 10605 10611 10614 10617 10620 10623 10624 10625 10626 10624 10622 10618 10615 10611 10607 10604 10601 10597 10596 10596 10596 10596 10594 10592 10592
10296 10311 10325 10344 10367 10392 10412 10432 10456 10480 10479 10498 10515 10538 10554 10569 10580 10589 10596 10602 10607 10610 10614 10617 10619 10621 10621 10620 10619 10617 10614 10610 10606 10602 10599 10596 10594 10594 10594 10594 10593 10590 10589 10592
10294 10306 10319 10339 10356 10378 10394 10413 10442 10466 10459 10481 10510 10528 10547 10562 10574 10585 10591 10597 10603 10608 10612 10613 10617 10618 10616 10615 10613 10612 10608 10604 10600 10597 10594 10592 10591 10591 10591 10591 10590 10589 10590 10592
10294 10302 10313 10325 10348 10370 10392 10410 10430 10441 10448 10476 10502 10522 10540 10554 10568 10580 10585 10591 10599 10603 10608 10611 10613 10614 10613 10611 10609 10607 10602 10599 10595 10592 10590 10588 10588 10588 10589 10589 10589 10590 10592 10595
10291 10299 10310 10323 10339 10361 10382 10402 10424 10430 10448 10476 10497 10517 10533 10548 10561 10571 10581 10589 10594 10598 10602 10607 10610 10611 10609 10608 10606 10602 10598 10594 10591 10589 10587 10586 10586 10588 10588 10589 10589 10592 10593 10597
10291 10299 10310 10325 10339 10355 10371 10390 10412 10420 10451 10474 10495 10512 10526 10541 10555 10568 10578 10585 10589 10595 10598 10603 10608 10608 10606 10604 10602 10598 10595 10591 10588 10585 10584 10584 10586 10587 10587 10588 10589 10593 10596 10600
10293 10301 10312 10325 10341 10354 10374 10394 10407 10429 10449 10471 10491 10502 10522 10537 10551 10564 10573 10580 10586 10590 10595 10598 10604 10605 10603 10601 10600 10596 10593 10588 10586 10583 10582 10584 10586 10587 10588 10588 10590 10594 10599 10601
10299 10308 10314 10330 10350 10363 10374 10393 10411 10426 10447 10467 10483 10502 10517 10532 10546 10560 10570 10575 10581 10587 10592 10595 10600 10602 10600 10599 10597 10594 10590 10588 10586 10583 10583 10585 10586 10588 10588 10588 10592 10596 10601 10604
10303 10312 10324 10332 10338 10357 10378 10396 10407 10428 10448 10465 10481 10501 10514 10529 10542 10554 10564 10572 10578 10584 10589 10593 10598 10599 10598 10598 10595 10592 10589 10588 10585 10584 10584 10586 10587 10588 10589 10591 10594 10597 10603 10607
10309 10316 10328 10344 10359 10370 10382 10395 10414 10431 10447 10465 10482 10499 10512 10525 10538 10550 10560 10568 10575 10579 10584 10591 10595 10596 10596 10595 10594 10591 10589 10589 10587 10585 10584 10586 10588 10588 10590 10592 10596 10600 10603 10609
10313 10320 10332 10350 10366 10382 10391 10404 10420 10433 10448 10463 10481 10496 10510 10523 10534 10546 10555 10566 10572 10579 10584 10589 10592 10592 10594 10593 10592 10591 10591 10590 10588 10586 10585 10587 10589 10589 10590 10592 10596 10601 10604 10608
10318 10327 10337 10353 10365 10378 10395 10411 10422 10435 10449 10466 10479 10492 10507 10522 10532 10542 10555 10563 10570 10575 10581 10588 10589 10590 10592 10592 10591 10591 10591 10591 10590 10589 10587 10587 10590 10591 10592 10594 10598 10602 10606 10609
10326 10336 10346 10353 10368 10380 10395 10407 10422 10438 10451 10467 10483 10495 10508 10521 10532 10543 10552 10560 10567 10574 10578 10583 10585 10588 10590 10591 10591 10591 10591 10592 10592 10591 10590 10590 10591 10592 10594 10596 10599 10603 10607 10610
10339 10346 10360 10374 10382 10390 10396 10408 10423 10438 10457 10472 10485 10499 10510 10521 10534 10546 10551 10558 10564 10569 10575 10578 10580 10584 10589 10590 10591 10591 10590 10591 10593 10593 10593 10592 10593 10594 10595 10598 10600 10602 10606 10609
10348 10357 10367 10378 10388 10400 10410 10420 10432 10446 10457 10468 10483 10498 10508 10521 10529 10542 10545 10553 10560 10567 10571 10574 10578 10582 10586 10589 10591 10591 10592 10592 10593 10595 10595 10596 10596 10596 10597 10599 10601 10603 10605 10607
10354 10365 10374 10386 10394 10404 10416 10426 10434 10449 10459 10464 10476 10487 10500 10508 10518 10529 10540 10547 10556 10562 10565 10570 10577 10579 10583 10585 10588 10591 10592 10593 10595 10596 10597 10597 10598 10598 10599 10601 10602 10604 10605 10607
10358 10367 10379 10388 10395 10402 10410 10422 10432 10443 10452 10464 10471 10480 10491 10500 10509 10519 10530 10539 10547 10554 10558 10564 10570 10574 10578 10581 10584 10588 10590 10592 10595 10597 10598 10598 10599 10599 10600 10601 10603 10604 10606 10607
10359 10367 10377 10387 10397 10406 10412 10420 10429 10434 10445 10453 10466 10475 10485 10492 10503 10513 10522 10532 10539 10544 10549 10556 10562 10567 10572 10577 10579 10583 10587 10590 10592 10595 10598 10599 10599 10600 10601 10602 10603 10604 10604 10605
10357 10364 10371 10380 10390 10397 10407 10416 10423 10429 10444 10454 10460 10468 10478 10488 10495 10503 10512 10521 10531 10536 10541 10548 10554 10560 10564 10569 10575 10577 10581 10585 10588 10591 10593 10596 10598 10600 10601 10602 10603 10604 10605 10605
10359 10363 10369 10375 10382 10392 10400 10409 10418 10425 10438 10446 10452 10455 10465 10476 10485 10495 10505 10513 10521 10528 10533 10538 10543 10550 10555 10560 10567 10571 10575 10578 10582 10586 10588 10591 10594 10596 10598 10601 10602 10603 10604 10605
10347 10359 10368 10375 10379 10386 10394 10404 10413 10421 10430 10437 10447 10456 10463 10472 10481 10486 10495 10503 10512 10518 10525 10530 10535 10541 10545 10551 10556 10561 10565 10569 10573 10577 10582 10585 10588 10590 10592 10594 10596 10598 10601 10602
10337 10345 10355 10367 10375 10381 10388 10395 10406 10414 10422 10431 10438 10446 10456 10464 10472 10478 10487 10496 10504 10511 10516 10520 10527 10532 10535 10540 10547 10552 10556 10559 10563 10568 10572 10575 10580 10582 10584 10587 10589 10591 10593 10595
10330 10333 10340 10351 10362 10370 10379 10386 10394 10403 10411 10418 10428 10436 10444 10452 10461 10469 10476 10484 10492 10499 10506 10511 10515 10522 10526 10531 10535 10541 10545 10549 10552 10556 10560 10564 10567 10571 10575 10576 10579 10582 10584 10586
10319 10325 10333 10338 10347 10357 10364 10373 10384 10391 10398 10405 10413 10420 10429 10438 10446 10455 10462 10469 10476 10484 10491 10498 10502 10509 10516 10520 10523 10526 10531 10536 10539 10544 10548 10552 10554 10557 10560 10563 10566 10569 10572 10575
10312 10315 10321 10329 10336 10343 10351 10360 10369 10376 10383 10388 10397 10405 10414 10426 10433 10442 10449 10455 10461 10468 10476 10483 10489 10494 10501 10507 10510 10514 10517 10521 10526 10530 10534 10537 10542 10545 10548 10551 10552 10554 10557 10558
10307 10308 10312 10318 10324 10332 10339 10344 10351 10359 10369 10375 10380 10387 10395 10404 10414 10423 10431 10439 10445 10451 10459 10466 10474 10480 10485 10490 10495 10499 10503 10507 10511 10514 10518 10522 10526 10529 10533 10535 10538 10540 10542 10544
10302 10306 10309 10312 10316 10321 10326 10332 10338 10342 10348 10354 10362 10371 10381 10389 10396 10402 10408 10416 10425 10433 10439 10447 10455 10461 10467 10472 10476 10481 10485 10488 10492 10496 10501 10504 10507 10510 10513 10517 10520 10522 10525 10527